Date String (YYYY-MM-DD hh:mm:ss) UTC,Instrument flags,Ambient pressure (hPa),Sample flow (lpm),Bypass flow (lpm),Sample temperature (°C),Ambient temperature (°C),ASC tube jacket temperature (°C),LED temperature (°C),Box temperature (°C),Sample RH (%),Span deviation,Mass concentration (μg/m³),Mass concentration (μg/m³),Mass concentration (μg/m³)
DateTimeUTC,F1_M11,P_M11,Q1_M11,Q2_M11,T1_M11,T2_M11,T3_M11,T4_M11,T5_M11,U1_M11,ZSPAN_M11,X0_M11,X2_M11,X1_M11
2022-04-12 00:00:00,,0807.5,4.98,0.00,28.0,27.3,00.0,36.8,29.8,06.9,0000.0,0022.24,0005.68,0002.33
2022-04-12 00:01:00,,0807.5,5.00,0.00,28.0,27.3,00.0,36.8,29.8,07.1,0000.0,0022.95,0005.74,0002.33
2022-04-12 00:02:00,,0807.5,5.01,0.00,28.0,27.3,00.0,36.9,29.8,07.1,0000.0,0024.03,0005.73,0002.29
2022-04-12 00:03:00,,0807.5,4.99,0.00,28.0,27.3,00.0,36.9,29.9,07.1,0000.0,0023.61,0005.68,0002.26
2022-04-12 00:04:00,,0807.6,5.00,0.00,28.0,27.3,00.0,36.9,29.8,06.8,0000.0,0023.07,0005.67,0002.26
2022-04-12 00:05:00,,0807.6,5.00,0.00,28.0,27.3,00.0,36.9,29.8,06.8,0000.0,0023.12,0005.71,0002.27
2022-04-12 00:06:00,,0807.6,4.99,0.00,28.0,27.3,00.0,36.9,29.8,06.8,0000.0,0023.05,0005.68,0002.28
2022-04-12 00:07:00,,0807.6,5.02,0.00,28.0,27.3,00.0,36.9,29.9,06.8,0000.0,0022.07,0005.69,0002.27
2022-04-12 00:08:00,,0807.5,4.99,0.00,28.1,27.3,00.0,36.9,29.9,06.8,0000.0,0021.78,0005.77,0002.26
2022-04-12 00:09:00,,0807.6,4.99,0.00,28.1,27.4,00.0,36.9,29.9,06.7,0000.0,0022.45,0005.75,0002.26
2022-04-12 00:10:00,,0807.5,5.01,0.00,28.1,27.4,00.0,36.9,29.9,06.7,0000.0,0022.76,0005.73,0002.26
2022-04-12 00:11:00,,0807.5,4.99,0.00,28.1,27.4,00.0,36.9,30.0,06.8,0000.0,0022.63,0005.65,0002.25
2022-04-12 00:12:00,,0807.5,5.00,0.00,28.1,27.4,00.0,36.9,30.0,06.8,0000.0,0022.39,0005.63,0002.25
2022-04-12 00:13:00,,0807.6,5.01,0.00,28.1,27.5,00.0,37.0,30.0,06.8,0000.0,0020.01,0005.62,0002.25
2022-04-12 00:14:00,,0807.6,4.99,0.00,28.1,27.5,00.0,37.0,30.0,06.8,0000.0,0019.99,0005.56,0002.27
2022-04-12 00:15:00,,0807.6,4.99,0.00,28.2,27.5,00.0,37.0,30.0,07.1,0000.0,0019.44,0005.52,0002.26
2022-04-12 00:16:00,,0807.6,5.02,0.00,28.2,27.5,00.0,37.0,30.1,07.2,0000.0,0018.74,0005.55,0002.26
2022-04-12 00:17:00,,0807.6,4.99,0.00,28.2,27.5,00.0,37.0,30.1,07.2,0000.0,0019.00,0005.60,0002.26
2022-04-12 00:18:00,,0807.6,5.01,0.00,28.2,27.6,00.0,37.0,30.1,07.0,0000.0,0019.64,0005.62,0002.26
2022-04-12 00:19:00,,0807.6,4.99,0.00,28.3,27.6,00.0,37.0,30.1,07.0,0000.0,0019.89,0005.61,0002.28
2022-04-12 00:20:00,,0807.6,5.00,0.00,28.3,27.6,00.0,37.0,30.1,06.9,0000.0,0022.35,0005.64,0002.27
2022-04-12 00:21:00,,0807.6,5.02,0.00,28.3,27.6,00.0,37.1,30.2,06.8,0000.0,0021.78,0005.58,0002.25
2022-04-12 00:22:00,,0807.6,5.00,0.00,28.3,27.6,00.0,37.1,30.2,06.9,0000.0,0022.40,0005.55,0002.23
2022-04-12 00:23:00,,0807.6,5.00,0.00,28.3,27.7,00.0,37.1,30.2,07.0,0000.0,0022.44,0005.50,0002.23
2022-04-12 00:24:00,,0807.6,5.01,0.00,28.4,27.7,00.0,37.1,30.2,06.9,0000.0,0022.41,0005.46,0002.24
2022-04-12 00:25:00,,0807.5,5.00,0.00,28.4,27.7,00.0,37.1,30.2,07.0,0000.0,0022.73,0005.51,0002.23
2022-04-12 00:26:00,,0807.5,4.99,0.00,28.4,27.7,00.0,37.2,30.2,07.1,0000.0,0023.65,0005.60,0002.24
2022-04-12 00:27:00,,0807.6,5.00,0.00,28.4,27.7,00.0,37.2,30.3,07.1,0000.0,0025.35,0005.55,0002.24
2022-04-12 00:28:00,,0807.6,5.01,0.00,28.4,27.7,00.0,37.2,30.3,07.1,0000.0,0025.48,0005.56,0002.25
2022-04-12 00:29:00,,0807.6,5.00,0.00,28.4,27.7,00.0,37.2,30.3,06.9,0000.0,0026.24,0005.53,0002.25
2022-04-12 00:30:00,,0807.6,5.00,0.00,28.4,27.7,00.0,37.2,30.3,06.9,0000.0,0026.80,0005.45,0002.24
2022-04-12 00:31:00,,0807.5,5.01,0.00,28.5,27.8,00.0,37.2,30.3,06.9,0000.0,0024.80,0005.45,0002.25
2022-04-12 00:32:00,,0807.6,4.99,0.00,28.5,27.8,00.0,37.2,30.3,06.8,0000.0,0023.84,0005.43,0002.26
2022-04-12 00:33:00,,0807.6,5.01,0.00,28.5,27.8,00.0,37.3,30.3,06.8,0000.0,0024.37,0005.44,0002.27
2022-04-12 00:34:00,,0807.5,5.00,0.00,28.5,27.8,00.0,37.3,30.3,06.8,0000.0,0024.65,0005.47,0002.29
2022-04-12 00:35:00,,0807.5,4.99,0.00,28.5,27.8,00.0,37.3,30.3,06.8,0000.0,0025.05,0005.56,0002.28
2022-04-12 00:36:00,,0807.4,5.01,0.00,28.5,27.8,00.0,37.3,30.4,06.7,0000.0,0025.34,0005.62,0002.31
2022-04-12 00:37:00,,0807.4,5.01,0.00,28.5,27.8,00.0,37.3,30.4,06.8,0000.0,0024.59,0005.58,0002.31
2022-04-12 00:38:00,,0807.4,4.98,0.00,28.5,27.8,00.0,37.3,30.4,06.9,0000.0,0023.06,0005.59,0002.32
2022-04-12 00:39:00,,0807.4,5.00,0.00,28.5,27.8,00.0,37.3,30.4,06.8,0000.0,0022.90,0005.59,0002.32
2022-04-12 00:40:00,,0807.4,5.02,0.00,28.6,27.8,00.0,37.3,30.4,06.7,0000.0,0021.55,0005.60,0002.33
2022-04-12 00:41:00,,0807.4,4.98,0.00,28.6,27.8,00.0,37.4,30.4,06.8,0000.0,0020.74,0005.60,0002.34
2022-04-12 00:42:00,,0807.4,5.01,0.00,28.6,27.8,00.0,37.4,30.4,06.9,0000.0,0021.08,0005.60,0002.35
2022-04-12 00:43:00,,0807.4,5.00,0.00,28.6,27.8,00.0,37.4,30.4,07.0,0000.0,0022.26,0005.63,0002.33
2022-04-12 00:44:00,,0807.4,4.99,0.00,28.6,27.8,00.0,37.4,30.4,06.8,0000.0,0023.03,0005.69,0002.34
2022-04-12 00:45:00,,0807.4,5.01,0.00,28.6,27.9,00.0,37.4,30.5,06.7,0000.0,0023.29,0005.73,0002.31
2022-04-12 00:46:00,,0807.3,4.99,0.00,28.6,27.9,00.0,37.4,30.5,06.8,0000.0,0023.37,0005.71,0002.29
2022-04-12 00:47:00,,0807.3,5.02,0.00,28.6,27.9,00.0,37.4,30.5,06.8,0000.0,0023.04,0005.76,0002.28
2022-04-12 00:48:00,,0807.3,4.99,0.00,28.6,27.9,00.0,37.4,30.5,06.8,0000.0,0022.94,0005.76,0002.27
2022-04-12 00:49:00,,0807.4,5.01,0.00,28.6,27.9,00.0,37.5,30.5,06.8,0000.0,0022.79,0005.81,0002.27
2022-04-12 00:50:00,,0807.4,5.01,0.00,28.7,27.9,00.0,37.5,30.5,06.9,0000.0,0022.93,0005.77,0002.26
2022-04-12 00:51:00,,0807.3,4.99,0.00,28.7,27.9,00.0,37.5,30.5,06.8,0000.0,0023.95,0005.77,0002.25
2022-04-12 00:52:00,,0807.3,5.01,0.00,28.7,27.9,00.0,37.5,30.5,06.7,0000.0,0023.91,0005.79,0002.25
2022-04-12 00:53:00,,0807.2,5.00,0.00,28.7,27.9,00.0,37.5,30.5,06.8,0000.0,0024.98,0005.77,0002.25
2022-04-12 00:54:00,,0807.2,5.00,0.00,28.7,27.9,00.0,37.5,30.5,06.7,0000.0,0025.37,0005.72,0002.25
2022-04-12 00:55:00,,0807.2,5.01,0.00,28.7,27.9,00.0,37.5,30.5,06.7,0000.0,0025.16,0005.73,0002.25
2022-04-12 00:56:00,,0807.1,5.00,0.00,28.7,27.9,00.0,37.5,30.5,06.7,0000.0,0024.32,0005.79,0002.27
2022-04-12 00:57:00,,0807.1,4.99,0.00,28.7,27.9,00.0,37.5,30.5,06.7,0000.0,0024.44,0005.83,0002.30
2022-04-12 00:58:00,,0807.2,5.02,0.00,28.7,27.9,00.0,37.5,30.5,06.7,0000.0,0023.87,0005.80,0002.30
2022-04-12 00:59:00,,0807.1,4.99,0.00,28.7,27.9,00.0,37.6,30.6,06.7,0000.0,0024.26,0005.82,0002.31
